This is the latest recevied weather packets stored in our database for station/object N7CEE-2. If no packets are shown the sender has not sent any weather packets the latest 10 day(s).
| Time | Temp. | Humidity | Pressure | Rain* | Wind** | Luminosity | Snow |
|---|---|---|---|---|---|---|---|
| 1777661509 | 27.78° C | 31% | 1014 hPa | 0 mm | - | 970 W/m² | - |
| 1777661205 | 27.78° C | 32% | 1014.3 hPa | 0 mm | - | 965 W/m² | - |
| 1777660899 | 28.33° C | 31% | 1014.4 hPa | 0 mm | - | 960 W/m² | - |
| 1777660596 | 27.78° C | 30% | 1014.5 hPa | 0 mm | - | 956 W/m² | - |
| 1777660293 | 26.67° C | 31% | 1014.5 hPa | 0 mm | - | 949 W/m² | - |
| 1777659989 | 27.22° C | 31% | 1014.6 hPa | 0 mm | - | 944 W/m² | - |
| 1777659686 | 26.67° C | 32% | 1014.7 hPa | 0 mm | - | 938 W/m² | - |
| 1777659384 | 27.22° C | 32% | 1014.7 hPa | 0 mm | - | 930 W/m² | - |
| 1777659080 | 27.22° C | 31% | 1014.8 hPa | 0 mm | - | 922 W/m² | - |
| 1777658778 | 27.78° C | 30% | 1014.8 hPa | 0 mm | - | 915 W/m² | - |
| 1777658474 | 26.67° C | 31% | 1015.2 hPa | 0 mm | - | 906 W/m² | - |
| 1777658171 | 26.67° C | 32% | 1015.1 hPa | 0 mm | - | 897 W/m² | - |
| 1777657868 | 26.11° C | 32% | 1015 hPa | 0 mm | - | 886 W/m² | - |
| 1777657565 | 27.22° C | 31% | 1015 hPa | 0 mm | - | 880 W/m² | - |
| 1777657263 | 26.67° C | 31% | 1015.2 hPa | 0 mm | - | 864 W/m² | - |
| 1777656960 | 26.67° C | 31% | 1015 hPa | 0 mm | - | 855 W/m² | - |
| 1777656656 | 27.22° C | 31% | 1015.2 hPa | 0 mm | - | 843 W/m² | - |
| 1777656352 | 26.67° C | 31% | 1015.2 hPa | 0 mm | - | 832 W/m² | - |
| 1777656048 | 26.67° C | 32% | 1015.2 hPa | 0 mm | - | 818 W/m² | - |
| 1777655744 | 25.56° C | 33% | 1015.2 hPa | 0 mm | - | 805 W/m² | - |
| 1777655441 | 26.67° C | 33% | 1015.1 hPa | 0 mm | - | 789 W/m² | - |
| 1777655138 | 26.11° C | 33% | 1015.2 hPa | 0 mm | - | 776 W/m² | - |
| 1777654835 | 26.11° C | 35% | 1015.1 hPa | 0 mm | - | 760 W/m² | - |
| 1777654532 | 26.67° C | 33% | 1015.1 hPa | 0 mm | - | 744 W/m² | - |
| 1777654230 | 26.67° C | 33% | 1015.3 hPa | 0 mm | - | 729 W/m² | - |
* Rain latest hour (hover to see other rain measurements)
** Current wind speed in m/s (hover to see current wind gust speed)